Seattle, WA
on Sunday, November 11, 2012

Sunday
Previous Day Next Day
Daily Summary
 ActualAverageRecord
Temperature
Mean Temperature °F 46°F  
Max Temperature 48°F 52°F 65°F (1990)
Min Temperature 34°F 41°F 15°F (1955)
Degree Days
Heating Degree Days 24 19  
Month to date heating degree days 176 192  
Since 1 July heating degree days 669 789  
Cooling Degree Days 0 0  
Month to date cooling degree days 0 0  
Year to date cooling degree days 177 189  
Moisture
Dew Point 33°F   
Average Humidity 71    
Maximum Humidity 89    
Minimum Humidity 53    
Precipitation
Precipitation 0.60 in 0.23 in 1.48 in (1973)
Month to date precipitation 1.58 2.27  
Year to date precipitation 34.71 27.84  
Snow
Snow 0.00 in in 1.40 in (1955)
Month to date snowfall 0.0  
Since 1 July snowfall 0.0  
Snow Depth 0.00 in   
Wind
Wind Speed 7 mph   
Max Wind Speed 14 mph   
Max Gust Speed 17 mph   
Visibility 8 miles   
Events Rain , Snow   

Key: T is trace of precipitation, MM is missing value
Source: NWS Daily Summary
Time(PST)TemperatureDew PointHumidity Pressure Visibility Wind DirectionWind SpeedGust SpeedPrecipitationEvents Conditions
12:53 AM 34.0°F 27.0°F 75% 30.26 in 10.0 miles SE 5.8 mph - N/A   Mostly Cloudy
1:53 AM 34.0°F 27.0°F 75% 30.26 in 10.0 miles ESE 9.2 mph - N/A   Mostly Cloudy
2:53 AM 34.0°F 27.0°F 75% 30.25 in 10.0 miles ESE 6.9 mph - N/A   Mostly Cloudy
3:53 AM 35.1°F 26.1°F 70% 30.25 in 10.0 miles ESE 8.1 mph - 0.00 in Snow Light Snow
4:53 AM 35.1°F 26.1°F 70% 30.24 in 10.0 miles ESE 8.1 mph - N/A   Mostly Cloudy
5:53 AM 36.0°F 26.1°F 67% 30.23 in 10.0 miles SE 5.8 mph - N/A   Mostly Cloudy
6:53 AM 37.0°F 26.1°F 65% 30.24 in 10.0 miles SE 4.6 mph - N/A   Overcast
7:53 AM 37.9°F 26.1°F 62% 30.25 in 10.0 miles ESE 5.8 mph - N/A   Overcast
8:53 AM 39.0°F 26.1°F 60% 30.25 in 10.0 miles SE 5.8 mph - N/A   Overcast
10:53 AM 42.1°F 30.0°F 62% 30.25 in 10.0 miles ESE 5.8 mph - 0.00 in   Overcast
11:53 AM 45.0°F 30.0°F 56% 30.23 in 10.0 miles SE 5.8 mph - N/A   Overcast
12:53 PM 46.0°F 30.9°F 56% 30.22 in 10.0 miles SSE 5.8 mph - N/A   Overcast
1:53 PM 46.9°F 33.1°F 59% 30.20 in 10.0 miles SE 8.1 mph - N/A   Overcast
2:53 PM 48.0°F 36.0°F 63% 30.19 in 10.0 miles SSE 6.9 mph - 0.00 in Rain Light Rain
3:53 PM 45.0°F 37.9°F 76% 30.18 in 6.0 miles SE 9.2 mph - 0.04 in Rain Light Rain
4:53 PM 44.6°F 39.2°F 81% 30.13 in 6.0 miles ESE 8.1 mph - N/A Rain Rain
5:53 PM 43.0°F 39.0°F 86% 30.14 in 7.0 miles ESE 11.5 mph - 0.12 in Rain Light Rain
6:53 PM 43.0°F 39.0°F 86% 30.12 in 7.0 miles ESE 8.1 mph - 0.09 in Rain Light Rain
7:53 PM 43.0°F 39.9°F 89% 30.12 in 8.0 miles SSE 3.5 mph - 0.07 in Rain Light Rain
8:53 PM 44.1°F 39.9°F 85% 30.12 in 10.0 miles ESE 4.6 mph - 0.02 in Rain Light Rain
9:53 PM 43.0°F 39.9°F 89% 30.12 in 7.0 miles East 5.8 mph - 0.04 in Rain Light Rain
10:53 PM 44.1°F 39.9°F 85% 30.10 in 5.0 miles East 8.1 mph - 0.10 in Rain Rain
11:35 PM 42.8°F 39.2°F 87% 30.08 in 4.0 miles NE 3.5 mph - N/A Rain Light Rain
11:53 PM 43.0°F 41.0°F 93% 30.12 in 3.0 miles NE 3.5 mph - 0.04 in Rain Light Rain
Moon Phase
Nov. 11 Nov. 13 Nov. 20 Nov. 28 Dec. 06
Sunrise:07:08 AM (PST) Moon Rise:04:21 AM (PST)11/11
Sunset:04:37 PM (PST) Moon Set:03:10 PM (PST)11/11

Copyright © 2014 The Weather Underground, Inc.